Madera Ranchos
DateTemperatureDew Point
06/21 - 11:30 PM68.6°58.2°
06/21 - 11:15 PM69.1°57.9°
06/21 - 11:00 PM70.1°58.1°
06/21 - 10:45 PM70.9°58.2°
06/21 - 10:30 PM71.5°58.1°
06/21 - 10:15 PM72.4°57.4°
06/21 - 10:00 PM73.2°57.1°
06/21 - 09:45 PM74.0°57.1°
06/21 - 09:30 PM74.7°56.9°
06/21 - 09:15 PM75.2°57.6°
06/21 - 09:00 PM75.2°58.8°
06/21 - 08:45 PM76.0°59.6°
06/21 - 08:30 PM77.4°59.4°
06/21 - 08:15 PM78.7°59.4°
06/21 - 08:00 PM80.1°59.3°
06/21 - 07:45 PM81.8°59.3°
06/21 - 07:30 PM83.6°59.0°
06/21 - 07:15 PM85.9°58.7°
06/21 - 07:00 PM87.7°57.6°
06/21 - 06:45 PM89.3°57.0°
06/21 - 06:30 PM90.1°57.5°
06/21 - 06:15 PM91.2°56.0°
06/21 - 06:00 PM91.8°55.0°
06/21 - 05:45 PM91.9°53.8°
06/21 - 05:30 PM92.2°53.6°
06/21 - 05:15 PM92.7°55.0°
06/21 - 05:00 PM92.9°54.8°
06/21 - 04:45 PM93.9°54.9°
06/21 - 04:30 PM94.4°54.4°
06/21 - 04:15 PM94.5°55.0°
06/21 - 04:00 PM93.9°53.5°
06/21 - 03:45 PM93.9°53.6°
06/21 - 03:30 PM94.4°54.3°
06/21 - 03:15 PM93.6°54.3°
06/21 - 03:00 PM93.6°55.2°
06/21 - 02:45 PM93.1°54.9°
06/21 - 02:30 PM92.5°55.2°
06/21 - 02:15 PM91.6°56.5°
06/21 - 02:00 PM91.4°56.4°
06/21 - 01:45 PM91.3°56.1°
06/21 - 01:30 PM90.8°55.3°
06/21 - 01:15 PM90.4°55.3°
06/21 - 01:00 PM89.8°54.8°
06/21 - 12:45 PM88.7°53.5°
06/21 - 12:30 PM88.1°52.9°
06/21 - 12:15 PM87.5°54.5°
06/21 - 12:00 PM86.6°53.5°
06/21 - 11:45 AM86.0°52.8°
06/21 - 11:30 AM85.1°51.0°
06/21 - 11:15 AM84.4°50.4°
06/21 - 11:00 AM83.6°50.3°
06/21 - 10:45 AM83.0°51.7°
06/21 - 10:30 AM82.1°52.2°
06/21 - 10:15 AM80.5°52.0°
06/21 - 10:00 AM79.9°52.7°
06/21 - 09:45 AM78.9°52.9°
06/21 - 09:30 AM77.9°52.9°
06/21 - 09:15 AM77.3°53.1°
06/21 - 09:00 AM76.1°53.5°
06/21 - 08:45 AM74.6°52.2°
06/21 - 08:30 AM72.8°52.2°
06/21 - 08:15 AM71.6°51.6°
06/21 - 08:00 AM69.8°51.7°
06/21 - 07:45 AM68.0°52.2°
06/21 - 07:30 AM67.3°52.1°
06/21 - 07:15 AM66.5°51.7°
06/21 - 07:00 AM64.9°51.3°
06/21 - 06:45 AM62.4°50.1°
06/21 - 06:30 AM61.9°49.9°
06/21 - 06:15 AM58.6°49.2°
06/21 - 06:00 AM55.5°48.2°
06/21 - 05:45 AM54.9°47.6°
06/21 - 05:30 AM55.1°47.3°
06/21 - 05:15 AM55.6°48.0°
06/21 - 05:00 AM56.0°48.5°
06/21 - 04:45 AM56.7°48.5°
06/21 - 04:30 AM57.3°48.4°
06/21 - 04:15 AM58.0°48.9°
06/21 - 04:00 AM58.1°49.5°
06/21 - 03:45 AM58.0°49.9°
06/21 - 03:30 AM58.3°50.3°
06/21 - 03:15 AM58.8°50.4°
06/21 - 03:00 AM59.2°50.8°
06/21 - 02:45 AM59.6°51.4°
06/21 - 02:30 AM60.0°52.2°
06/21 - 02:15 AM60.3°52.7°
06/21 - 02:00 AM60.9°53.0°
06/21 - 01:45 AM61.5°53.0°
06/21 - 01:30 AM62.1°53.1°
06/21 - 01:15 AM62.8°53.2°
06/21 - 01:00 AM63.4°53.4°
06/21 - 12:45 AM64.2°53.4°
06/21 - 12:30 AM64.5°53.5°
06/21 - 12:15 AM64.9°53.7°
06/21 - 12:00 AM65.6°54.0°
06/20 - 11:45 PM66.5°54.0°
06/20 - 11:30 PM67.2°54.0°
06/20 - 11:15 PM67.6°53.7°
06/20 - 11:00 PM68.1°53.8°
06/20 - 10:45 PM68.7°53.4°
06/20 - 10:30 PM69.5°53.6°
06/20 - 10:15 PM70.3°54.0°
06/20 - 10:00 PM70.8°54.2°
06/20 - 09:45 PM71.6°54.2°
06/20 - 09:30 PM73.1°53.7°
06/20 - 09:15 PM73.4°53.4°
06/20 - 09:00 PM73.6°53.1°
06/20 - 08:45 PM74.3°53.0°
06/20 - 08:30 PM76.2°52.9°
06/20 - 08:15 PM78.9°52.2°
06/20 - 08:00 PM80.8°51.6°
06/20 - 07:45 PM82.4°50.8°
06/20 - 07:30 PM84.0°49.7°
06/20 - 07:15 PM85.3°48.9°
06/20 - 07:00 PM86.2°49.4°
06/20 - 06:45 PM86.5°47.9°
06/20 - 06:30 PM86.9°48.2°
06/20 - 06:15 PM88.1°49.1°
06/20 - 06:00 PM88.8°48.7°
06/20 - 05:45 PM88.6°46.8°
06/20 - 05:30 PM88.6°49.4°
06/20 - 05:15 PM89.0°50.4°
06/20 - 05:00 PM89.4°49.8°
06/20 - 04:45 PM89.8°50.6°
06/20 - 04:30 PM91.3°51.9°
06/20 - 04:15 PM90.8°51.3°
06/20 - 04:00 PM90.4°50.7°
06/20 - 03:45 PM90.3°51.0°
06/20 - 03:30 PM90.0°50.2°
06/20 - 03:15 PM91.8°51.3°
06/20 - 03:00 PM90.6°50.5°
06/20 - 02:45 PM90.2°50.5°
06/20 - 02:30 PM89.8°50.4°
06/20 - 02:15 PM88.6°49.8°
06/20 - 02:00 PM88.7°50.7°
06/20 - 01:45 PM88.0°51.4°
06/20 - 01:30 PM87.1°50.7°
06/20 - 01:15 PM86.9°51.9°
06/20 - 01:00 PM86.3°51.6°
06/20 - 12:45 PM86.2°52.2°
06/20 - 12:30 PM85.4°52.1°
06/20 - 12:15 PM84.4°52.3°
06/20 - 12:00 PM83.2°53.0°
06/20 - 11:45 AM81.5°52.0°
06/20 - 11:30 AM80.8°51.3°
06/20 - 11:15 AM80.3°51.0°
06/20 - 11:00 AM78.8°50.2°
06/20 - 10:45 AM78.0°50.2°
06/20 - 10:30 AM76.9°50.0°
06/20 - 10:15 AM77.0°49.8°
06/20 - 10:00 AM75.0°48.3°
06/20 - 09:45 AM74.4°48.5°
06/20 - 09:30 AM73.7°48.4°
06/20 - 09:15 AM72.0°47.2°
06/20 - 09:00 AM71.8°47.7°
06/20 - 08:45 AM71.3°47.7°
06/20 - 08:30 AM70.0°47.0°
06/20 - 08:15 AM68.5°46.4°
06/20 - 08:00 AM67.1°47.2°
06/20 - 07:45 AM65.5°48.0°
06/20 - 07:30 AM63.9°47.8°
06/20 - 07:15 AM62.6°47.6°
06/20 - 07:00 AM61.2°48.2°
06/20 - 06:45 AM59.0°47.4°
06/20 - 06:30 AM57.6°46.9°
06/20 - 06:15 AM54.8°46.8°
06/20 - 06:00 AM52.6°45.9°
06/20 - 05:45 AM52.4°45.4°
06/20 - 05:30 AM52.6°45.4°
06/20 - 05:15 AM52.7°45.4°
06/20 - 05:00 AM52.6°45.3°
06/20 - 04:45 AM53.0°45.2°
06/20 - 04:30 AM53.7°45.2°
06/20 - 04:15 AM54.2°45.3°
06/20 - 04:00 AM54.7°45.4°
06/20 - 03:45 AM55.1°45.5°
06/20 - 03:30 AM55.1°45.6°
06/20 - 03:15 AM55.1°45.8°
06/20 - 03:00 AM55.5°45.7°
06/20 - 02:45 AM56.1°45.8°
06/20 - 02:30 AM57.0°46.0°
06/20 - 02:15 AM57.9°46.0°
06/20 - 02:00 AM58.8°46.1°
06/20 - 01:45 AM59.6°46.2°
06/20 - 01:30 AM60.2°46.3°
06/20 - 01:15 AM60.9°46.7°
06/20 - 01:00 AM61.6°47.0°
06/20 - 12:45 AM62.5°47.4°
06/20 - 12:30 AM63.4°47.7°
06/20 - 12:15 AM64.0°48.0°
06/20 - 12:00 AM64.4°48.2°